Location: St. Louis
(38.6270°N, 90.1994°W)
Time: 07:15:25
(UTC-06:00)

A-11 Canister half - Pass Details

Date: 10 December 2021
Orbit: 1524 x 1684 km, 47.3° (Epoch: 17 January)

Event Time Altitude Azimuth Distance (km) Brightness Sun altitude
Rises 05:03:25 0° 298° (WNW) 4,935 - -23.6°
Reaches altitude 10° 05:06:38 10° 300° (WNW) 3,937 - -23.0°
Exits shadow 05:10:56 30° 304° (WNW) 2,664 9.7 -22.1°
Maximum altitude 05:16:47 81° 28° (NNE) 1,665 9.1 -21.0°
Drops below altitude 10° 05:26:36 10° 117° (ESE) 3,817 12.2 -19.2°
Sets 05:29:39 0° 118° (ESE) 4,780 13.1 -18.6°
